Weather History for KJST - November, 2010

Change the Weather History Date:

Tuesday, November 30, 2010

  Actual Average Record
Temperature  
Mean Temperature 45 °F 33 °F  
Max Temperature 54 °F 39 °F 74 °F (1908)
Min Temperature 36 °F 28 °F 3 °F (1929)
Degree Days  
Heating Degree Days 20 32  
Month to date heating degree days 764  
Since 1 July heating degree days 1457  
Cooling Degree Days 0 0  
Month to date cooling degree days 0  
Year to date cooling degree days 382  
Moisture  
Dew Point 42 °F    
Average Humidity 91    
Maximum Humidity 100    
Minimum Humidity 65    
Precipitation  
Precipitation 1.21 in 0.14 in 1.25 in (2010)
Month to date precipitation 3.70  
Year to date precipitation 31.05  
Sea Level Pressure  
Sea Level Pressure 30.01 in    
Wind  
Wind Speed 18 mph (SSE)    
Max Wind Speed 26 mph    
Max Gust Speed 44 mph    
Visibility 6 miles    
Events Rain    
T = Trace of Precipitation, MM = Missing Value Source: NWS Daily Summary

Daily Weather History Graph

Daily Weather History Graph

Search for Another Location

Airport or City:

Trip Planner

Search our weather history database for the weather conditions in past years. The results will help you decide how hot, cold, wet, or windy it might be!

Date:

Astronomy

Nov. 30, 2010 Rise Set
Actual Time 7:17 AM EST 4:50 PM EST
Civil Twilight 6:47 AM EST 5:20 PM EST
Nautical Twilight 6:13 AM EST 5:53 PM EST
Astronomical Twilight 5:41 AM EST 6:26 PM EST
Moon 1:30 AM EST (11/30) 1:20 PM EST (11/30)
Length of Visible Light 10h 32m
Length of Day
9h 32m
Waning Crescent, 29% of the Moon is Illuminated
Nov 30
Waning Crescent
Dec 5
New
Dec 13
First Quarter
Dec 21
Full
Dec 27
Last Quarter

Hourly Weather History & Observations

Time (EST) Temp. Windchill Dew Point Humidity Pressure Visibility Wind Dir Wind Speed Gust Speed Precip Events Conditions
12:54 AM 36.0 °F 27.1 °F 27.0 °F 70% 30.25 in 10.0 mi SSE 13.8 mph - N/A   Clear
1:54 AM 39.9 °F 30.0 °F 28.9 °F 65% 30.22 in 10.0 mi South 21.9 mph 27.6 mph N/A   Mostly Cloudy
2:54 AM 39.0 °F 29.6 °F 28.9 °F 67% 30.20 in 10.0 mi SSE 18.4 mph 25.3 mph N/A   Overcast
3:54 AM 37.0 °F 29.3 °F 28.9 °F 73% 30.20 in 10.0 mi SE 11.5 mph 21.9 mph 0.00 in Rain Light Rain
4:54 AM 37.0 °F 28.9 °F 32.0 °F 82% 30.19 in 10.0 mi SSE 12.7 mph 24.2 mph 0.01 in Rain Light Rain
5:54 AM 37.0 °F 26.7 °F 34.0 °F 89% 30.16 in 7.0 mi SSE 19.6 mph 27.6 mph 0.02 in Rain Light Rain
6:34 AM 37.4 °F 27.2 °F 35.6 °F 93% 30.10 in 9.0 mi SSE 19.6 mph 26.5 mph 0.00 in Rain Light Rain
6:54 AM 37.9 °F 27.9 °F 36.0 °F 93% 30.15 in 5.0 mi SSE 19.6 mph 27.6 mph 0.02 in Rain Light Rain
7:49 AM 39.2 °F 29.3 °F 37.4 °F 93% 30.09 in 4.0 mi SSE 20.7 mph 27.6 mph 0.11 in Rain Rain
7:54 AM 39.9 °F 30.5 °F 37.9 °F 93% 30.15 in 4.0 mi SSE 19.6 mph 29.9 mph 0.12 in Rain Rain
8:02 AM 39.2 °F 29.8 °F 37.4 °F 93% 30.10 in 4.0 mi SSE 18.4 mph 31.1 mph 0.03 in Rain Rain
8:38 AM 39.2 °F 28.5 °F 39.2 °F 100% 30.08 in 2.5 mi SSE 24.2 mph 31.1 mph 0.17 in Rain Heavy Rain
8:47 AM 41.0 °F 31.4 °F 39.2 °F 93% 30.09 in 2.0 mi SSE 21.9 mph 31.1 mph 0.20 in Rain Heavy Rain
8:54 AM 41.0 °F 31.4 °F 39.9 °F 96% 30.14 in 1.8 mi SSE 21.9 mph 29.9 mph 0.24 in Rain Heavy Rain
9:03 AM 41.0 °F 31.9 °F 39.2 °F 93% 30.06 in 2.0 mi SSE 19.6 mph 28.8 mph 0.03 in Rain Rain
9:31 AM 42.8 °F 34.0 °F 41.0 °F 93% 30.08 in 2.0 mi SSE 20.7 mph 27.6 mph 0.12 in Rain Rain
9:41 AM 42.8 °F 34.0 °F 41.0 °F 93% 30.07 in 3.0 mi SSE 20.7 mph 29.9 mph 0.14 in Rain Rain
9:54 AM 43.0 °F 34.0 °F 41.0 °F 93% 30.12 in 5.0 mi SSE 21.9 mph 29.9 mph 0.16 in Rain Rain
10:54 AM 44.1 °F 35.2 °F 43.0 °F 96% 30.09 in 4.0 mi SSE 23.0 mph 28.8 mph 0.07 in Rain Rain
11:39 AM 44.6 °F 36.6 °F 42.8 °F 93% 30.03 in 4.0 mi SSE 19.6 mph 29.9 mph 0.06 in Rain Rain
11:54 AM 44.1 °F 36.5 °F 43.0 °F 96% 30.06 in 4.0 mi SSE 17.3 mph 24.2 mph 0.08 in Rain Rain
12:54 PM 45.0 °F 37.1 °F 43.0 °F 93% 30.02 in 3.0 mi SSE 19.6 mph 28.8 mph 0.08 in Rain Rain
1:04 PM 44.6 °F 37.2 °F 42.8 °F 93% 29.97 in 4.0 mi SSE 17.3 mph 27.6 mph 0.02 in Rain Light Rain
1:32 PM 44.6 °F 36.6 °F 44.6 °F 100% 29.96 in 5.0 mi SSE 19.6 mph 29.9 mph 0.04 in Rain Light Rain
1:46 PM 44.6 °F 37.8 °F 44.6 °F 100% 29.95 in 2.5 mi SSE 15.0 mph 29.9 mph 0.07 in Rain Rain
1:54 PM 46.0 °F 39.6 °F 44.1 °F 93% 29.98 in 3.0 mi SSE 15.0 mph 28.8 mph 0.09 in Rain Rain
2:54 PM 46.0 °F 38.3 °F 45.0 °F 96% 29.96 in 2.5 mi SSE 20.7 mph 29.9 mph 0.07 in Rain Heavy Rain
3:06 PM 46.4 °F 39.0 °F 44.6 °F 93% 29.93 in 7.0 mi SSE 19.6 mph 29.9 mph 0.00 in Rain Light Rain
3:50 PM 46.4 °F 39.8 °F 46.4 °F 100% 29.91 in 2.0 mi SSE 16.1 mph 26.5 mph 0.06 in Rain Rain
3:54 PM 46.9 °F - 46.0 °F 97% 29.94 in 2.0 mi SSE 13.8 mph 21.9 mph 0.08 in Rain Rain
4:08 PM 48.2 °F - 46.4 °F 93% 29.91 in 6.0 mi SSE 19.6 mph 26.5 mph 0.01 in Rain Light Rain
4:54 PM 48.9 °F - 46.9 °F 93% 29.94 in 10.0 mi SSE 16.1 mph 31.1 mph 0.07 in Rain Light Rain
5:54 PM 50.0 °F - 48.0 °F 93% 29.93 in 8.0 mi South 20.7 mph 27.6 mph 0.02 in Rain Light Rain
7:54 PM 52.0 °F - 50.0 °F 93% 29.83 in 9.0 mi SSE 17.3 mph 25.3 mph 0.00 in Rain Light Rain
8:54 PM 53.1 °F - 51.1 °F 93% 29.79 in 10.0 mi SSE 17.3 mph 35.7 mph 0.01 in   Overcast
9:54 PM 53.1 °F - 52.0 °F 96% 29.77 in 10.0 mi SSE 19.6 mph 38.0 mph N/A   Overcast
10:54 PM 54.0 °F - 52.0 °F 93% 29.72 in 10.0 mi SSE 20.7 mph 40.3 mph 0.02 in Rain Light Rain
11:15 PM 53.6 °F - 51.8 °F 94% 29.70 in 6.0 mi SSE 26.5 mph 43.7 mph 0.02 in Rain Light Rain
11:44 PM 53.6 °F - 51.8 °F 94% 29.68 in 7.0 mi SE 21.9 mph 34.5 mph 0.04 in Rain Light Rain
11:54 PM 54.0 °F - 52.0 °F 93% 29.69 in 10.0 mi SSE 24.2 mph 36.8 mph 0.05 in Rain Light Rain